Regional Weather Roundup
Issued by NWS Albany, NY

Home | Current Version | Previous Version | Text Only | Print | Product List | Glossary On
Versions: 1 2 3 4 5 6 7 8 9 10 11 12 13 14 15 16 17 18 19 20 21 22 23 24 25 26 27 28 29 30 31 32 33 34 35 36 37 38 39 40 41 42 43 44 45 46 47 48 49 50
647
ASUS41 KALY 291210
RWRALY

NEW YORK STATE HOURLY WEATHER ROUNDUP
NATIONAL WEATHER SERVICE ALBANY NY
800 AM EDT SUN MAY 29 2016

NOTE: "FAIR" INDICATES FEW OR NO CLOUDS BELOW 12,000 FEET WITH NO
SIGNIFICANT WEATHER AND/OR NO OBSTRUCTIONS TO VISIBILITY.

NYZ032-033-038>043-046>054-057>066-NYZ062>081-082-084-291300-
EAST


CITY           SKY/WX    TMP DP  RH WIND       PRES   REMARKS
ALBANY         CLOUDY    74  67  78 S9        30.11S
GLENS FALLS    SUNNY     72  65  78 CALM      30.11S
POUGHKEEPSIE   SUNNY     77  66  68 SW6       30.11R
NEWBURGH       MOSUNNY   73  68  83 SW7       30.14S
MONTGOMERY     CLOUDY    74  68  81 SW8       30.13S
WHITE PLAINS   SUNNY     73  60  63 CALM      30.14S
ISLIP          PTSUNNY   71  57  61 SW10      30.15S
NEW YORK CITY  MOSUNNY   77  62  59 SW7       30.14S
CENTRAL PARK   SUNNY     74  57  55 VRB6      30.17S
$$

NYZ005>009-017-018-044>046-055-056-291300-
CENTRAL


CITY           SKY/WX    TMP DP  RH WIND       PRES   REMARKS
FULTON         MOSUNNY   76  68  76 S5        30.08R
SYRACUSE       MOSUNNY   73  67  81 E3        30.07R
ROME           SUNNY     73  64  73 E7        30.10S
ELMIRA         CLOUDY    71  65  81 CALM      30.12R
BINGHAMTON     SUNNY     72  67  84 S5        30.15R
MONTICELLO     SUNNY     68  66  94 CALM      30.19S
$$

NYZ026>034-041>043-087-291300-
NORTH


CITY           SKY/WX    TMP DP  RH WIND       PRES   REMARKS
WATERTOWN      CLOUDY    72  66  81 W3        30.06S
FORT DRUM      NOT AVBL
MASSENA        PTSUNNY   64  55  72 NE6       30.09S
SARANAC LAKE   MOSUNNY   69  61  75 CALM      30.13S
PLATTSBURGH    MOSUNNY   69  59  70 NE3       30.09S
$$

NYZ001>004-010>016-019>021-085-291300-
WEST


CITY           SKY/WX    TMP DP  RH WIND       PRES   REMARKS
NIAGARA FALLS  PTSUNNY   74  65  73 SW8       30.08R
BUFFALO        PTSUNNY   72  65  78 SW9       30.09R
DUNKIRK        MOSUNNY   73  65  75 CALM      30.10R
JAMESTOWN      MOSUNNY   66  63  88 CALM      30.15S
WELLSVILLE     PTSUNNY   72  66  81 W5        30.18R
ROCHESTER      PTSUNNY   73  66  78 SW3       30.09R
PENN YAN       PTSUNNY   73  65  75 SW7       30.11R
$$

             KEY
       WCI = WIND CHILL INDEX
       VSB = VISIBILITY
       HX  = HEAT INDEX
$$




USA.gov is the U.S. government's official web portal to all federal, state and local government web resources and services.